{"data":{"norad_id":68228,"intl_designator":"2026-053X","name":"STARLINK-37050","alt_names":[],"object_type":"PAYLOAD","status":"ACTIVE","operator":null,"country":"US","launch_date":"2026-03-17","launch_site_code":"AFWTR","launch_vehicle":null,"mission":null,"orbit_class":"UNKNOWN","rcs_meters":null,"size_class":null,"mass_kg":null,"dimensions":null,"purposes":["comms"],"wikipedia_slug":null,"has_3d_model":false,"image_url":null,"decayed_at":null,"tle_current":{"epoch":"2026-05-25T02:31:48.339840Z","epoch_age_seconds":76658,"freshness":"FRESH","line1":"1 68228U 26053X   26145.10542060  .00018456  00000+0  57237-3 0  9998","line2":"2 68228  97.2869  20.6283 0001369  58.1920 301.9456 15.33458830 11914","mean_motion":15.3345883,"eccentricity":0.0001369,"inclination_deg":97.2869,"raan_deg":20.6283,"arg_perigee_deg":58.192,"mean_anomaly_deg":301.9456,"bstar":0.00057237,"rev_number":1191,"period_min":93.905357733015,"perigee_km":464.5651322549,"apogee_km":466.43892062034,"semimajor_km":6843.6390264376,"source":"CELESTRAK","updated_at":"2026-05-25T13:38:21.881709Z"}}}